FENGYUN 1C DEB, 30361

Orbit data source: Space-Track

FENGYUN 1C DEB, 30361 is space debris in SSO originally from a launch on Mon, 10 May 1999 UTC launched from the Taiyaun Space Center, China (TSC). Fengyun 1C debris stems from the Chinese weather satellite Fengyun-1C, which was intentionally destroyed by a Chinese anti-satellite missile in 2007. This event dramatically increased the amount of space debris, with thousands of trackable fragments posing hazards to satellites and human spaceflight. The Fengyun 1C debris cloud has become a focal point in discussions about space sustainability and the need for international regulations to prevent the creation of new debris.

Loading next visibility...
Identifier
30361, 1999-025ABY
Orbit
SSO
Country
Flag of CNCN / PRC
Related business
Manufacturer
Unknown
Mission
Spacecraft
Bus & Motor
Unknown
Mass
Unknown
Launch date (UTC)
1999-05-10 (27 years ago)
Launch vehicle
Unknown
Launch site
Taiyaun Space Center, China (TSC)
Object type
Payload
Rocket body
Debris
Shape & HBR
Unknown shape, 0.050 m
Radar Cross Section
Medium (>0.1 m² and <1 m²)

Expand to show TLE details & history
Last TLE update: 18 hours ago

TLE from 18 hours ago
0 FENGYUN 1C DEB
1 30361U 99025ABY 26266.05423916  .00001111  00000-0  47003-3 0  9991
2 30361  98.5461 300.3064 0063236 279.6296  79.7745 14.26398972 16697
Epoch: 2026-09-23T01:18Z
TLE epoch observation values (Epoch: 2026-09-23T01:18:06.263Z)
Latitude
0.00005°
Longitude
-81.13058°
Altitude
798.936 km
Speed
7.458 km/s
True Right ascension
20h 01m 13s
True Declination
0° 00' 00"
Sunlit
Object was in full shadow at epoch
Visualization orbit readout
Latitude
Unknown
Longitude
Unknown
Altitude
Unknown
Speed
Unknown
Apparent Right ascension
Unknown
Apparent Declination
Unknown
Sunlit
N/A
Visualization observer readout
Local Sidereal Time
12:57:32
Azimuth
Unknown
Elevation
Unknown
Doppler factor
Unknown
Orbital elements
Apogee altitude
846.333 km
Perigee altitude
755.537 km
Semi-major axis
7,179.072 km
Eccentricity
0.00632
Inclination
98.5461°
RAAN
300.3064°
Arg. of periapsis
279.6296°
True anomaly
80.48861°
Mean anomaly
79.7745°
Eccentric anomaly
80.13145°
Mean motion
3.56813 °/min
Orbital period
100.89 mins
BSTAR
0.00047003
Loading maneuver chart data...
Computing Atmospheric mass density...

Documentation

Showing up to 5 results
|